RH
89 85 84 84 85 83 83 82 78 73 70 64 59 59 61 63 67 80 84 76 71 62 57 55 54 54 55 57 60 60 63 64 65 65 66 66 67 67 67 68 68 67 67
82 78 83 84 87 86 88 85 82 78 75 68 59 55 57 63 65 67 82 86 76 70 62 58 56 56 56 56 57 60 64 64 64 64 65 65 66 66 67 66 67 67 67
70 69 84 88 89 88 86 83 77 76 72 66 63 60 57 53 55 56 63 73 80 77 72 62 60 59 58 56 56 58 62 63 64 65 65 66 66 66 67 67 66 67 66
67 78 76 87 81 90 88 85 83 78 77 76 75 69 65 59 54 51 53 57 74 76 76 73 68 63 62 61 58 56 58 61 63 64 65 65 66 65 66 66 67 65 66
65 80 89 90 87 89 90 84 85 80 79 77 70 68 71 72 67 51 53 50 53 65 78 75 79 78 72 65 62 59 57 58 61 63 65 66 66 66 65 65 65 66 64
80 86 87 86 84 85 84 82 79 82 82 84 64 65 77 71 72 69 63 54 55 53 59 70 80 85 79 71 66 63 61 61 61 62 63 65 66 66 66 65 66 65 64
81 87 89 86 86 86 88 83 84 84 84 90 81 80 75 64 68 73 64 61 58 58 58 60 70 80 82 73 72 68 63 61 60 61 62 64 64 65 66 66 65 65 64
85 84 84 86 85 88 88 87 86 88 90 92 85 92 87 72 73 69 67 64 66 69 66 61 65 66 75 83 81 73 71 65 60 58 58 59 61 62 64 64 64 64 64
84 85 86 88 90 92 93 91 88 88 92 92 91 84 92 93 92 79 76 75 76 73 71 72 67 67 70 74 75 76 73 72 68 64 60 59 62 63 63 63 62 62 63
88 86 87 91 92 94 93 92 89 93 92 96 94 88 89 84 93 94 83 78 79 74 78 80 77 72 71 75 76 77 76 75 70 68 64 59 57 62 65 64 65 64 65
91 91 91 92 93 95 94 93 94 95 96 96 96 96 93 93 93 92 90 89 80 80 81 82 81 81 75 79 83 78 78 69 68 68 70 67 59 59 63 64 66 68 68
93 88 86 90 92 93 94 95 94 93 95 94 94 93 93 94 95 95 96 87 87 80 73 77 80 82 83 85 76 79 77 66 58 59 60 65 69 64 63 66 68 69 69
88 81 72 71 71 68 72 82 82 81 89 90 90 94 94 95 95 96 97 96 93 81 81 66 74 78 64 81 72 77 74 68 64 63 62 60 63 69 72 69 67 65 69
62 54 53 51 54 57 64 65 68 71 75 81 74 76 81 86 86 92 96 98 93 90 81 82 69 78 75 74 74 77 72 74 69 67 67 65 65 66 67 71 70 69 68
46 48 48 49 51 58 60 64 70 69 70 75 78 78 79 82 85 85 88 93 98 91 84 80 85 83 69 68 70 70 72 73 72 72 70 75 77 75 75 76 76 74 73
43 44 47 50 52 60 64 66 70 70 72 77 76 78 81 83 84 88 90 92 95 95 90 87 76 77 74 67 68 69 66 75 72 71 71 76 76 76 77 79 79 78 81
43 45 48 52 53 63 64 67 70 76 78 80 82 84 83 83 88 89 91 93 94 96 86 73 80 70 75 75 69 69 70 71 71 69 71 71 77 77 78 79 78 81 82
48 51 52 58 58 68 71 74 78 81 82 85 87 88 88 74 90 90 93 93 94 92 89 86 73 74 75 66 67 73 68 68 76 72 74 72 74 75 82 80 84 84 85
54 54 58 60 68 74 76 81 83 84 84 86 89 91 90 91 93 94 94 95 90 76 87 86 85 77 73 63 68 68 76 80 80 76 69 69 69 75 79 80 86 91 93
57 61 65 69 72 76 78 80 83 86 87 85 86 88 89 90 92 94 92 94 82 87 86 86 84 81 74 66 67 77 79 80 79 67 72 77 77 83 83 84 89 94 90
65 69 68 69 68 71 70 80 82 84 86 86 86 84 84 85 84 76 78 89 91 90 86 80 74 78 77 74 69 74 88 82 82 76 83 88 94 94 91 88 96 92 89
72 70 72 70 71 60 64 63 70 83 81 84 88 87 85 82 80 72 71 74 75 85 88 90 88 84 81 81 82 86 92 95 95 90 97 92 96 96 96 98 91 91 93
69 70 70 70 71 70 59 60 62 79 82 86 87 86 82 70 80 85 78 72 71 67 70 79 89 85 84 77 86 96 96 97 97 96 98 100 99 98 96 92 90 92 92
68 69 70 69 68 62 59 58 62 76 80 82 83 84 87 85 83 69 73 76 77 65 64 66 73 81 82 81 88 94 97 98 98 97 99 99 100 99 97 98 92 90 89
68 68 67 66 69 68 59 56 61 72 75 77 77 82 76 71 69 66 72 81 66 64 62 69 76 80 83 85 88 97 97 99 98 100 99 99 99 100 99 98 96 89 88
64 63 62 68 59 71 59 57 60 71 77 80 76 70 67 66 67 67 70 73 72 72 74 80 79 81 85 90 93 99 99 99 99 100 99 100 99 99 99 100 98 98 96
Wind_Speed
3 3 3 4 3 3 3 3 3 4 4 4 4 4 4 3 2 1 1 5 4 3 2 2 3 4 5 5 6 6 5 6 7 8 8 9 9 10 11 11 11 12 13
4 4 4 4 3 3 3 3 3 3 3 3 4 4 4 3 1 2 2 3 7 5 4 4 5 6 7 8 8 8 7 8 8 8 9 9 9 10 11 11 12 13 13
3 4 4 3 3 2 4 3 3 2 3 3 3 4 3 4 4 4 2 2 3 7 7 7 7 7 8 8 9 10 10 10 10 10 11 11 11 11 12 13 13 13 14
4 4 3 3 3 3 2 3 3 2 3 3 3 4 4 4 5 4 3 2 2 3 5 9 9 8 9 10 11 12 12 12 12 13 13 13 13 13 14 14 15 14 15
6 5 4 3 4 3 3 2 3 2 2 3 4 4 4 3 4 2 4 3 2 2 3 6 8 9 9 11 12 14 14 15 15 15 15 16 16 16 15 15 16 16 16
7 6 4 5 4 4 3 3 3 3 2 3 4 4 4 4 3 3 4 3 4 5 4 4 4 5 10 12 14 15 15 16 17 17 18 17 17 18 18 18 18 18 17
6 6 4 5 4 4 2 2 1 4 3 4 3 4 3 4 5 4 4 3 5 6 6 5 4 4 5 14 15 16 17 18 19 19 20 19 20 20 20 20 19 18 19
6 6 6 4 4 4 3 3 3 1 2 4 2 1 5 5 5 4 4 4 5 4 5 6 6 6 5 4 8 18 20 21 21 22 22 22 22 22 21 21 21 20 20
6 6 5 4 4 3 3 2 2 4 2 2 5 3 3 2 4 4 5 3 6 5 5 6 6 6 6 5 8 11 18 21 24 25 24 23 24 24 24 23 23 23 22
6 6 5 5 5 3 5 3 3 2 2 3 3 3 3 1 2 5 4 5 5 6 6 4 5 6 6 5 7 11 16 21 24 27 28 26 27 26 27 27 27 25 25
6 6 6 5 5 4 4 5 4 4 2 2 2 1 1 1 1 1 6 4 3 3 3 4 5 5 7 6 5 6 15 22 24 26 26 30 31 30 29 28 27 28 25
4 5 6 6 5 5 5 4 4 6 4 3 1 2 1 1 2 2 3 7 10 2 6 3 5 4 5 5 7 13 16 22 25 25 27 28 29 32 31 30 29 29 28
3 4 5 5 4 5 5 5 6 6 5 4 4 3 3 3 2 2 2 3 4 6 4 5 4 5 6 6 8 14 18 21 25 27 28 28 28 29 29 28 29 29 29
5 5 6 6 6 6 6 6 4 4 5 5 6 5 3 4 3 2 2 2 4 2 4 6 4 3 6 8 12 18 12 22 26 28 30 30 29 29 31 29 28 27 27
6 6 6 7 6 7 6 6 5 5 5 4 5 5 3 3 3 3 2 1 1 4 4 4 4 4 10 10 13 13 12 21 28 28 28 27 27 28 29 30 29 28 27
8 7 6 7 5 7 6 6 5 5 5 4 4 5 4 2 3 2 1 1 2 2 5 3 6 10 10 10 12 12 13 21 25 29 29 27 27 27 27 27 28 27 27
6 8 5 6 5 8 6 6 6 5 6 5 5 5 5 4 3 3 2 2 1 2 7 8 5 9 10 12 12 12 12 13 12 24 28 28 28 28 28 25 27 26 26
7 6 7 6 6 7 6 6 6 5 5 5 5 5 5 4 5 5 3 4 3 4 5 14 11 10 11 15 14 14 11 10 11 19 26 26 25 27 25 24 23 24 22
7 6 7 5 7 6 6 5 5 5 5 5 5 5 5 5 5 4 4 4 3 6 6 9 12 9 10 12 15 13 12 10 7 16 23 25 26 26 25 21 20 3 5
8 6 6 6 6 5 5 5 5 4 4 4 4 5 5 6 6 6 6 5 6 7 7 8 10 11 11 11 12 14 14 9 11 11 15 19 22 21 23 15 6 4 5
6 6 7 6 5 4 3 4 3 3 4 5 4 5 5 8 12 11 7 7 8 7 8 10 11 12 12 12 14 13 11 14 11 11 12 8 7 8 9 9 1 4 8
7 7 6 6 6 2 7 7 5 3 4 5 5 6 6 10 8 15 17 18 14 10 11 11 11 13 15 12 11 11 11 12 14 2 8 8 5 6 7 4 6 4 13
6 6 6 6 5 3 7 6 8 3 4 5 5 6 7 7 11 7 12 17 15 18 21 15 16 14 19 16 15 13 11 11 11 9 7 4 4 5 7 5 11 6 18
6 5 5 5 4 3 7 7 9 5 5 5 5 6 6 9 9 13 11 11 11 13 14 13 14 16 16 17 14 11 11 11 8 6 2 3 3 3 7 7 17 16 16
5 4 4 5 4 4 10 10 8 4 4 5 5 5 7 9 15 20 13 13 17 15 16 22 24 27 29 29 20 10 8 7 6 3 2 1 2 3 5 8 7 15 14
4 4 4 5 8 5 9 10 9 3 4 4 5 6 14 14 20 21 14 14 17 16 15 15 14 16 17 14 17 6 5 7 5 3 1 1 1 1 3 3 6 7 4
Wind_Direction
150 130 96 89 99 95 81 61 56 43 28 10 22 19 4 26 54 186 240 265 258 256 260 276 302 313 313 308 303 303 304 318 326 331 335 336 333 330 332 333 334 333 329
145 130 122 106 95 96 92 77 67 43 30 13 360 2 349 321 299 232 222 248 262 263 259 271 284 299 306 306 301 299 295 301 308 314 317 319 319 318 318 319 319 323 324
180 120 123 120 126 78 82 69 49 42 30 5 357 339 333 322 321 310 272 262 269 263 264 268 275 288 295 299 299 296 292 296 301 304 307 309 310 312 311 310 308 313 315
139 123 125 139 112 80 82 69 36 34 13 6 326 316 314 323 315 304 313 298 258 259 271 261 261 276 290 298 301 297 295 295 296 297 300 302 304 305 306 306 305 305 309
102 111 116 98 92 69 51 48 44 54 4 339 316 306 314 305 291 301 291 301 298 284 284 292 291 281 278 285 294 297 295 295 293 291 292 295 296 300 301 302 301 300 301
107 108 97 98 89 86 60 50 60 27 38 326 310 317 330 334 354 3 326 334 338 342 340 308 300 296 286 281 284 292 294 294 295 293 292 291 292 294 295 297 300 302 298
122 118 110 103 98 92 92 63 78 39 6 345 354 339 341 32 46 358 355 5 6 2 346 340 325 308 304 296 290 289 291 292 293 293 293 289 289 289 290 292 293 294 294
120 120 125 126 117 112 81 60 51 41 8 17 37 68 2 336 353 26 27 29 21 341 354 350 333 327 314 300 292 298 295 290 290 293 295 292 289 288 282 284 286 287 287
114 117 117 115 97 95 86 73 68 60 29 346 33 100 18 323 336 333 4 11 6 9 342 342 343 338 322 313 315 308 305 296 291 290 293 294 291 286 281 279 277 277 275
111 110 104 106 104 94 83 75 65 78 85 36 5 32 60 124 333 326 329 336 0 333 321 316 321 319 320 321 318 317 324 329 327 314 300 292 293 289 282 283 281 279 278
102 107 105 97 86 83 83 80 65 62 68 101 90 16 4 290 199 281 298 316 300 294 307 326 304 313 320 320 318 318 337 336 330 326 322 312 304 296 288 284 285 282 278
94 92 97 95 87 82 73 68 66 61 58 70 57 25 45 19 321 305 301 318 315 303 313 310 302 314 313 308 315 326 323 325 326 323 318 311 307 304 300 295 295 292 287
105 99 96 87 78 75 68 68 65 60 49 64 42 28 33 42 8 332 309 315 310 315 309 310 301 313 317 333 320 315 314 316 315 314 312 311 307 305 304 300 294 291 289
112 101 94 92 90 83 82 78 73 71 64 65 52 40 45 34 32 29 346 318 304 275 287 277 302 318 343 327 317 319 317 314 312 310 309 307 306 306 304 297 291 287 287
109 99 97 91 85 72 76 78 69 60 59 55 44 36 36 15 24 12 17 16 305 319 303 302 322 336 333 323 319 314 318 313 312 308 305 302 300 303 304 299 291 286 285
100 96 82 91 77 77 70 73 58 46 56 30 42 34 26 349 357 345 319 292 192 241 275 341 305 304 304 306 304 308 306 304 309 308 308 305 302 301 300 297 295 291 285
100 106 103 89 91 81 68 70 72 46 50 33 24 21 356 333 331 322 321 311 297 224 302 300 280 298 296 295 303 301 299 294 291 294 297 301 299 301 298 296 298 290 284
94 103 98 97 91 86 76 68 62 45 40 25 4 359 341 338 326 317 321 311 273 269 285 300 308 311 307 313 308 299 294 282 281 281 286 297 298 299 293 295 297 291 278
108 90 95 99 88 103 87 76 71 52 31 17 354 345 320 333 329 309 309 298 292 308 293 297 305 308 306 318 311 307 299 287 269 281 299 299 301 298 294 296 303 329 357
98 99 90 83 100 102 89 74 62 41 21 3 343 329 320 331 315 308 308 297 309 304 296 302 305 310 308 319 314 317 311 306 311 308 300 292 296 297 295 287 284 288 305
104 94 88 75 74 86 94 80 58 27 3 350 337 324 318 310 309 323 324 317 311 309 312 309 305 305 308 315 318 319 308 312 314 309 314 318 318 298 283 287 271 287 315
88 88 79 80 66 46 48 28 33 22 358 338 332 330 313 305 311 326 323 316 311 306 309 304 301 300 300 302 306 310 307 314 313 3 326 308 326 326 343 31 346 284 107
99 93 89 85 73 40 37 27 24 25 356 335 322 314 313 316 319 301 307 310 306 307 300 300 296 295 300 304 303 304 304 302 297 311 316 289 327 333 331 325 315 174 113
96 97 87 82 77 38 31 23 31 13 352 313 294 295 304 312 313 320 313 313 304 302 300 294 292 291 286 293 289 297 301 297 288 277 284 285 325 338 347 23 92 101 106
85 81 81 66 60 33 21 17 17 346 307 301 297 314 317 311 310 321 316 308 307 303 303 300 289 285 286 287 290 298 290 290 300 275 279 271 328 334 19 19 23 79 91
94 83 78 53 45 32 11 6 0 318 331 323 333 313 311 316 318 316 311 307 305 307 305 300 298 291 287 280 284 281 286 285 286 275 236 256 263 338 49 10 16 16 45